Starlink 3638

operational
NORAD ID: 51786 Int'l Des: 2022-017 Owner: SPXS Country: US Constellation: starlink
LEOCIRCULAR

Starlink 3638について

説明を読み込み中...

リアルタイム位置

3D地球を読み込み中...

次回通過

高度履歴

Altitude vs Time

uPlot chart will show altitude changes over time

軌道要素

1 51786U 22017U 25354.23486100 .00003096 00000-0 21242-3 0 9994
2 51786 53.2205 345.8139 0001494 94.9790 265.1373 15.08855298210286
Epoch: Dec 20, 2025 • Age: 7 hours

現在のステータス

高度 553.6 km
速度 7.58 km/s
衛星直下点 -39.93°S, 81.81°W
打ち上げ日 Feb 25, 2022
運用期間 3.8 years
タイプ internet

技術仕様

分類 Payload
質量 297.00 kg
乾燥質量 275.00 kg
総質量 297.00 kg
長さ 0.20 m
直径 2.80 m
スパン 9.00 m
形状 Box + pan
製造者 SPXS
バスタイプ Starlink
フェーズステータス In Orbit
所有者/国 SPXS/US

大規模コンステレーション

Loading constellations...